Overview Statistics Trail Chart Weather Telemetry Raw packets
 

This is the latest recevied weather packets stored in our database for station/object K5SVV. If no packets are shown the sender has not sent any weather packets the latest 10 day(s).

<< 76 77 78 79 80 81 82 >>
Time Temp. Humidity Pressure Rain* Wind** Luminosity Snow
1788141990 30.56° C 50% 1012.7 hPa 0 mm - 0 W/m² -
1788141684 31.11° C 50% 1013 hPa 0 mm - 0 W/m² -
1788141381 31.11° C 49% 1012.7 hPa 0 mm - 0 W/m² -
1788141080 31.11° C 49% 1012.6 hPa 0 mm - 0 W/m² -
1788140775 31.67° C 48% 1012.5 hPa 0 mm - 0 W/m² -
1788140471 31.67° C 48% 1012.5 hPa 0 mm - 0 W/m² -
1788140167 31.67° C 47% 1012.3 hPa 0 mm - 0 W/m² -
1788139866 32.22° C 47% 1012.2 hPa 0 mm - 0 W/m² -
1788139561 32.22° C 47% 1012.3 hPa 0 mm - 0 W/m² -
1788139256 32.22° C 46% 1012.6 hPa 0 mm - 0 W/m² -
1788138955 32.78° C 46% 1012.3 hPa 0 mm - 0 W/m² -
1788138651 32.78° C 46% 1012.3 hPa 0 mm - 0 W/m² -
1788138346 32.78° C 46% 1012.4 hPa 0 mm - 0 W/m² -
1788138042 33.33° C 46% 1012.3 hPa 0 mm - 0 W/m² -
1788137737 33.33° C 45% 1012.3 hPa 0 mm - 2 W/m² -
1788137437 33.89° C 45% 1012.2 hPa 0 mm - 4 W/m² -
1788137133 33.89° C 45% 1012.4 hPa 0 mm - 8 W/m² -
1788136828 33.89° C 44% 1012.3 hPa 0 mm - 12 W/m² -
1788136525 34.44° C 43% 1012.3 hPa 0 mm - 17 W/m² -
1788136220 34.44° C 43% 1012 hPa 0 mm - 20 W/m² -
1788135918 35° C 42% 1012.2 hPa 0 mm - 25 W/m² -
1788135613 35° C 41% 1012 hPa 0 mm - 28 W/m² -
1788135321 35° C 41% 1012.1 hPa 0 mm - 31 W/m² -
1788134999 35.56° C 40% 1012.1 hPa 0 mm - 35 W/m² -
1788134695 35.56° C 41% 1012 hPa 0 mm - 42 W/m² -

* Rain latest hour (hover to see other rain measurements)
** Current wind speed in m/s (hover to see current wind gust speed)